Location: Breungeshain
(50.5000°N, 9.2000°E)
Time: 09:49:19
(UTC+00:00)

ISS - Pass Details

Date: 27 May 2017
Orbit: 402 x 409 km, 51.6° (Epoch: 24 May)

Event Time Altitude Azimuth Distance (km) Brightness Sun altitude
Rises 02:09:28 0° 280° (W) 2,329 -0.3 -9.1°
Reaches altitude 10° 02:12:22 10° 252° (WSW) 1,462 -1.5 -8.8°
Maximum altitude 02:14:00 13° 222° (SW) 1,283 -2.0 -8.6°
Drops below altitude 10° 02:15:37 10° 192° (SSW) 1,455 -1.6 -8.5°
Sets 02:18:30 0° 164° (SSE) 2,307 -0.3 -8.2°
